• In Hungary
  • List of Countries
  • For 7 days
  • Water Temperature
  • Satellite Maps
  • Weather Map
  • News
  • Weather Widgets
  • user-avatar
    Login

    Hourly Weather Shlina

    Today, 22 July, Sunday

    Time Temperature Precipitation Wind Pressure Humidity
    00:00 +19°C° 0.2 mm 2 mps 739 mmHg 97%
    01:00 +19°C° 0.2 mm 2 mps 739 mmHg 97%
    02:00 +19°C° 0 mm 1 mps 740 mmHg 98%
    03:00 +20°C° 0.3 mm 1 mps 740 mmHg 98%
    04:00 +19°C° 0.3 mm 2 mps 740 mmHg 98%
    05:00 +19°C° 0.3 mm 2 mps 740 mmHg 98%
    06:00 +19°C° 0.2 mm 2 mps 740 mmHg 97%
    07:00 +20°C° 0.2 mm 2 mps 740 mmHg 96%
    08:00 +20°C° 0.2 mm 2 mps 740 mmHg 95%
    09:00 +21°C° 0.3 mm 2 mps 740 mmHg 93%
    10:00 +21°C° 0.3 mm 3 mps 740 mmHg 90%
    11:00 +22°C° 0.3 mm 3 mps 741 mmHg 88%
    12:00 +22°C° 0.1 mm 3 mps 740 mmHg 86%
    13:00 +22°C° 0.1 mm 3 mps 740 mmHg 83%
    14:00 +24°C° 0.1 mm 3 mps 740 mmHg 80%
    15:00 +24°C° 0 mm 3 mps 740 mmHg 80%
    16:00 +22°C° 0 mm 3 mps 740 mmHg 80%
    17:00 +22°C° 0 mm 3 mps 741 mmHg 80%
    18:00 +21°C° 0 mm 2 mps 741 mmHg 83%
    19:00 +21°C° 0 mm 2 mps 741 mmHg 87%
    20:00 +21°C° 0 mm 1 mps 741 mmHg 91%
    21:00 +20°C° 0 mm 1 mps 741 mmHg 92%
    22:00 +20°C° 0 mm 1 mps 741 mmHg 93%
    23:00 +19°C° 0 mm 1 mps 741 mmHg 93%

    Tomorrow, 23 July, Monday

    Time Temperature Precipitation Wind Pressure Humidity
    00:00 +19°C° 0 mm 1 mps 741 mmHg 94%
    01:00 +19°C° 0 mm 1 mps 741 mmHg 94%
    02:00 +19°C° 0 mm 1 mps 742 mmHg 94%
    03:00 +19°C° 0 mm 1 mps 742 mmHg 93%
    04:00 +19°C° 0 mm 1 mps 742 mmHg 93%
    05:00 +18°C° 0 mm 2 mps 742 mmHg 93%
    06:00 +19°C° 0 mm 2 mps 742 mmHg 89%
    07:00 +20°C° 0 mm 2 mps 742 mmHg 86%
    08:00 +20°C° 0 mm 2 mps 742 mmHg 83%
    09:00 +22°C° 0.1 mm 3 mps 742 mmHg 78%
    10:00 +24°C° 0.1 mm 3 mps 742 mmHg 72%
    11:00 +25°C° 0.1 mm 3 mps 743 mmHg 66%
    12:00 +25°C° 0.2 mm 3 mps 742 mmHg 65%
    13:00 +25°C° 0.2 mm 3 mps 742 mmHg 64%
    14:00 +26°C° 0.2 mm 3 mps 742 mmHg 63%
    15:00 +25°C° 0 mm 3 mps 742 mmHg 63%
    16:00 +25°C° 0 mm 3 mps 742 mmHg 63%
    17:00 +25°C° 0 mm 3 mps 742 mmHg 64%
    18:00 +22°C° 0 mm 3 mps 742 mmHg 72%
    19:00 +21°C° 0 mm 2 mps 742 mmHg 80%
    20:00 +19°C° 0 mm 2 mps 743 mmHg 88%
    21:00 +18°C° 0 mm 2 mps 743 mmHg 90%
    22:00 +17°C° 0 mm 2 mps 743 mmHg 93%
    23:00 +16°C° 0 mm 2 mps 743 mmHg 96%

    Day after tomorrow, 24 July, Tuesday

    Time Temperature Precipitation Wind Pressure Humidity
    00:00 +16°C° 0 mm 2 mps 743 mmHg 97%
    01:00 +16°C° 0 mm 2 mps 743 mmHg 97%
    02:00 +15°C° 0 mm 2 mps 743 mmHg 98%
    03:00 +15°C° 0 mm 2 mps 743 mmHg 97%
    04:00 +15°C° 0 mm 2 mps 743 mmHg 96%
    05:00 +15°C° 0 mm 2 mps 743 mmHg 94%
    06:00 +16°C° 0 mm 3 mps 743 mmHg 90%
    07:00 +17°C° 0 mm 3 mps 744 mmHg 85%
    08:00 +18°C° 0 mm 3 mps 744 mmHg 81%
    09:00 +19°C° 0 mm 3 mps 744 mmHg 81%
    10:00 +19°C° 0 mm 3 mps 744 mmHg 80%
    11:00 +19°C° 0 mm 3 mps 744 mmHg 80%
    12:00 +20°C° 0 mm 3 mps 744 mmHg 79%
    13:00 +20°C° 0 mm 3 mps 744 mmHg 78%
    14:00 +21°C° 0 mm 3 mps 744 mmHg 77%
    15:00 +21°C° 0 mm 3 mps 744 mmHg 79%
    16:00 +20°C° 0 mm 3 mps 744 mmHg 82%
    17:00 +20°C° 0 mm 3 mps 744 mmHg 85%
    18:00 +20°C° 0 mm 3 mps 744 mmHg 87%
    19:00 +19°C° 0 mm 2 mps 744 mmHg 90%
    20:00 +19°C° 0 mm 2 mps 744 mmHg 92%
    21:00 +19°C° 0 mm 2 mps 744 mmHg 94%
    22:00 +18°C° 0 mm 2 mps 744 mmHg 95%
    23:00 +18°C° 0 mm 2 mps 744 mmHg 97%

    25 July, Wednesday

    Time Temperature Precipitation Wind Pressure Humidity
    00:00 +18°C° 0 mm 2 mps 744 mmHg 98%
    01:00 +18°C° 0 mm 2 mps 744 mmHg 98%
    02:00 +18°C° 0 mm 2 mps 744 mmHg 99%
    03:00 +18°C° 0 mm 2 mps 744 mmHg 98%
    04:00 +18°C° 0 mm 2 mps 745 mmHg 97%
    05:00 +19°C° 0 mm 2 mps 745 mmHg 97%
    06:00 +20°C° 0 mm 2 mps 745 mmHg 93%
    07:00 +21°C° 0 mm 3 mps 745 mmHg 90%
    08:00 +22°C° 0 mm 3 mps 745 mmHg 86%
    09:00 +24°C° 0.3 mm 3 mps 746 mmHg 80%
    10:00 +26°C° 0.3 mm 3 mps 746 mmHg 74%
    11:00 +27°C° 0.3 mm 3 mps 746 mmHg 68%
    12:00 +28°C° 0.3 mm 3 mps 746 mmHg 62%
    13:00 +28°C° 0.3 mm 4 mps 746 mmHg 56%
    14:00 +29°C° 0.3 mm 4 mps 746 mmHg 50%
    15:00 +29°C° 0 mm 3 mps 746 mmHg 53%
    16:00 +28°C° 0 mm 2 mps 746 mmHg 56%
    17:00 +28°C° 0 mm 2 mps 745 mmHg 58%
    18:00 +26°C° 0 mm 2 mps 746 mmHg 64%
    19:00 +24°C° 0 mm 2 mps 746 mmHg 70%
    20:00 +23°C° 0 mm 2 mps 746 mmHg 76%
    21:00 +21°C° 0 mm 2 mps 746 mmHg 75%
    22:00 +19°C° 0 mm 2 mps 746 mmHg 75%
    23:00 +18°C° 0 mm 2 mps 746 mmHg 74%

    26 July, Thursday

    Time Temperature Precipitation Wind Pressure Humidity
    00:00 +18°C° 0 mm 2 mps 746 mmHg 74%
    01:00 +18°C° 0 mm 2 mps 746 mmHg 74%
    02:00 +17°C° 0 mm 2 mps 746 mmHg 74%
    03:00 +17°C° 0 mm 2 mps 747 mmHg 76%
    04:00 +17°C° 0 mm 2 mps 747 mmHg 77%
    05:00 +17°C° 0 mm 2 mps 747 mmHg 78%
    06:00 +19°C° 0 mm 3 mps 747 mmHg 74%
    07:00 +21°C° 0 mm 3 mps 748 mmHg 69%
    08:00 +24°C° 0 mm 3 mps 748 mmHg 64%
    09:00 +26°C° 0 mm 3 mps 748 mmHg 59%
    10:00 +27°C° 0 mm 4 mps 748 mmHg 53%
    11:00 +29°C° 0 mm 4 mps 748 mmHg 47%
    12:00 +30°C° 0 mm 4 mps 748 mmHg 45%
    13:00 +30°C° 0 mm 4 mps 748 mmHg 42%
    14:00 +32°C° 0 mm 4 mps 748 mmHg 40%
    15:00 +30°C° 0 mm 3 mps 748 mmHg 44%
    16:00 +30°C° 0 mm 3 mps 748 mmHg 49%
    17:00 +30°C° 0 mm 2 mps 748 mmHg 53%
    18:00 +28°C° 0 mm 2 mps 748 mmHg 61%
    19:00 +26°C° 0 mm 2 mps 748 mmHg 68%
    20:00 +24°C° 0 mm 2 mps 748 mmHg 76%
    21:00 +23°C° 0 mm 2 mps 748 mmHg 80%
    22:00 +21°C° 0 mm 2 mps 749 mmHg 83%
    23:00 +20°C° 0 mm 2 mps 749 mmHg 87%

    27 July, Friday

    Time Temperature Precipitation Wind Pressure Humidity
    00:00 +19°C° 0 mm 2 mps 749 mmHg 88%
    01:00 +19°C° 0 mm 2 mps 749 mmHg 89%
    02:00 +18°C° 0 mm 2 mps 749 mmHg 90%
    03:00 +19°C° 0 mm 2 mps 749 mmHg 89%
    04:00 +19°C° 0 mm 2 mps 750 mmHg 88%
    05:00 +19°C° 0 mm 2 mps 750 mmHg 88%
    06:00 +21°C° 0 mm 2 mps 750 mmHg 82%
    07:00 +24°C° 0 mm 3 mps 750 mmHg 75%
    08:00 +26°C° 0 mm 3 mps 750 mmHg 69%
    09:00 +27°C° 0 mm 3 mps 750 mmHg 62%
    10:00 +29°C° 0 mm 3 mps 750 mmHg 55%
    11:00 +30°C° 0 mm 4 mps 750 mmHg 48%
    12:00 +32°C° 0 mm 4 mps 750 mmHg 48%
    13:00 +31°C° 0 mm 3 mps 750 mmHg 47%
    14:00 +31°C° 0 mm 3 mps 750 mmHg 47%
    15:00 +31°C° 0 mm 3 mps 750 mmHg 51%
    16:00 +30°C° 0 mm 2 mps 750 mmHg 55%
    17:00 +30°C° 0 mm 2 mps 750 mmHg 59%
    18:00 +28°C° 0.5 mm 2 mps 750 mmHg 68%
    19:00 +25°C° 0.5 mm 2 mps 750 mmHg 77%
    20:00 +23°C° 0.5 mm 2 mps 750 mmHg 86%
    21:00 +23°C° 0 mm 2 mps 750 mmHg 88%
    22:00 +21°C° 0 mm 2 mps 751 mmHg 90%
    23:00 +21°C° 0 mm 2 mps 751 mmHg 91%
    Show more